Weather History for Rome, OR

Change the Weather History Date:

Tuesday, February 26, 2013

  Actual Average Record
Temperature  
Mean Temperature 29 °F 36 °F  
Max Temperature 42 °F 49 °F 66 °F (1950)
Min Temperature 15 °F 23 °F -10 °F (2011)
Degree Days  
Heating Degree Days 36 29  
Month to date heating degree days 809 826  
Since 1 July heating degree days 4601 4675  
Cooling Degree Days 0 0  
Month to date cooling degree days 0 0  
Year to date cooling degree days 0 0  
Moisture  
Dew Point 13 °F    
Average Humidity 54    
Maximum Humidity 80    
Minimum Humidity 28    
Precipitation  
Precipitation 0.00 in 0.03 in 0.34 in (1957)
Month to date precipitation 0.23 0.71  
Year to date precipitation 0.78 1.36  
Sea Level Pressure  
Sea Level Pressure 30.33 in    
Wind  
Wind Speed 6 mph (South)    
Max Wind Speed 16 mph    
Max Gust Speed 20 mph    
T = Trace of Precipitation, MM = Missing Value Source: NWS Daily Summary

Daily Weather History Graph

Daily Weather History Graph

Search for Another Location

Airport:

Trip Planner

Search our weather history database for the weather conditions in past years. The results will help you decide how hot, cold, wet, or windy it might be!

Date:

Astronomy

Feb. 26, 2013 Rise Set
Actual Time 6:31 AM PST 5:37 PM PST
Civil Twilight 6:02 AM PST 6:06 PM PST
Nautical Twilight 5:30 AM PST 6:38 PM PST
Astronomical Twilight 4:57 AM PST 7:11 PM PST
Moon 7:02 PM PST (2/26) 6:34 AM PST (2/26)
Length of Visible Light 12h 03m
Length of Day
11h 06m
Full, 99% of the Moon is Illuminated
Feb 26
Full
Mar 4
Last Quarter
Mar 11
New
Mar 19
First Quarter
Mar 27
Full

Hourly Weather History & Observations

Time (PST) Temp. Windchill Dew Point Humidity Pressure Visibility Wind Dir Wind Speed Gust Speed Precip Events Conditions
12:52 AM 24.1 °F 19.7 °F 15.1 °F 69% 30.26 in - SW 3.5 mph - N/A   Unknown
1:52 AM 25.0 °F 20.7 °F 15.1 °F 66% 30.26 in - West 3.5 mph - N/A   Unknown
2:52 AM 18.0 °F 9.8 °F 12.9 °F 81% 30.28 in - South 5.8 mph - N/A   Unknown
3:52 AM 17.1 °F 6.6 °F 12.0 °F 81% 30.31 in - South 8.1 mph - N/A   Unknown
4:52 AM 18.0 °F 11.1 °F 12.9 °F 81% 30.34 in - South 4.6 mph - N/A   Unknown
5:52 AM 15.1 °F 4.2 °F 10.9 °F 84% 30.36 in - South 8.1 mph - N/A   Unknown
6:52 AM 18.0 °F 6.9 °F 12.9 °F 81% 30.36 in - SE 9.2 mph - N/A   Unknown
7:52 AM 26.1 °F 19.4 °F 18.0 °F 71% 30.38 in - SE 5.8 mph - N/A   Unknown
8:52 AM 30.9 °F 25.2 °F 16.0 °F 54% 30.38 in - SSE 5.8 mph - N/A   Unknown
9:52 AM 32.0 °F - 12.9 °F 45% 30.38 in - Calm Calm - N/A   Unknown
10:52 AM 35.1 °F 30.1 °F 12.9 °F 40% 30.36 in - Variable 5.8 mph - N/A   Unknown
11:52 AM 37.0 °F 31.0 °F 12.0 °F 36% 30.34 in - South 8.1 mph - N/A   Unknown
12:52 PM 39.0 °F 33.4 °F 10.9 °F 32% 30.32 in - SSW 8.1 mph 16.1 mph N/A   Unknown
1:52 PM 39.9 °F 33.9 °F 10.9 °F 31% 30.30 in - WSW 9.2 mph 17.3 mph N/A   Unknown
2:52 PM 41.0 °F 36.4 °F 10.9 °F 29% 30.32 in - Variable 6.9 mph - N/A   Unknown
3:52 PM 41.0 °F 35.2 °F 10.0 °F 28% 30.32 in - SSW 9.2 mph - N/A   Unknown
4:52 PM 37.9 °F 33.5 °F 10.9 °F 33% 30.32 in - SSW 5.8 mph - N/A   Unknown
5:52 PM 30.9 °F 24.3 °F 10.9 °F 43% 30.33 in - South 6.9 mph - N/A   Unknown
6:52 PM 28.0 °F 22.8 °F 12.9 °F 53% 30.35 in - SSE 4.6 mph - N/A   Unknown
7:52 PM 27.0 °F 17.3 °F 14.0 °F 58% 30.33 in - SE 10.4 mph - N/A   Unknown
8:52 PM 28.0 °F - 12.0 °F 51% 30.33 in - Calm Calm - N/A   Unknown
9:52 PM 26.1 °F 21.9 °F 14.0 °F 60% 30.34 in - NNW 3.5 mph - N/A   Unknown
10:52 PM 23.0 °F 17.0 °F 14.0 °F 68% 30.35 in - South 4.6 mph - N/A   Unknown
11:52 PM 27.0 °F 16.7 °F 16.0 °F 63% 30.34 in - SE 11.5 mph - N/A   Unknown